Dewpoint
40 36 34 35 36 34 32 30 28 28 28 26 24 20 20 24 25 26 27 30 39 38 39 41 42 42 44 48 49 50 51 55 64 64 63 64 65 64 63 63 64 64 64 64
39 35 36 36 35 34 32 30 28 29 28 27 22 26 27 27 27 27 36 38 36 36 36 38 41 42 43 48 48 49 49 50 51 57 57 64 64 64 64 64 63 63 63 63
38 37 38 36 33 32 31 29 29 29 27 27 25 25 26 27 34 35 35 34 34 33 34 36 36 40 40 46 48 48 49 48 49 52 54 61 62 61 60 60 61 61 62 62
39 38 36 36 34 32 29 30 29 27 27 25 26 23 23 25 33 32 30 28 28 30 31 33 34 35 38 41 47 47 45 44 46 49 52 51 55 56 59 60 61 61 60 60
38 36 35 34 34 35 31 33 30 29 29 28 26 25 24 25 31 31 28 25 24 25 24 24 26 27 31 37 44 45 44 43 46 46 47 51 50 52 53 56 58 58 59 59
37 35 33 33 32 31 32 31 30 29 27 24 25 25 25 23 28 29 24 24 24 24 25 24 24 27 27 34 38 42 43 43 43 44 43 46 48 50 49 49 50 54 57 58
33 32 32 33 32 34 28 28 30 24 24 22 25 25 25 29 30 25 24 23 24 25 23 19 21 25 26 33 38 40 42 41 42 44 44 44 46 48 48 48 48 48 50 55
31 30 32 31 30 31 25 26 28 24 25 25 26 23 24 29 27 28 29 26 20 17 16 16 20 25 30 34 34 42 41 41 42 44 45 47 48 49 49 49 48 49 49 49
32 31 33 33 29 30 25 26 27 29 30 27 25 23 25 23 22 22 20 20 18 16 15 14 22 30 29 31 33 37 39 41 44 43 45 46 46 47 49 48 49 49 49 49
34 32 32 32 33 27 25 29 28 33 25 24 26 23 25 23 21 21 20 20 20 18 18 18 24 27 29 30 35 36 36 36 38 41 43 42 43 46 47 48 48 48 48 48
33 37 33 30 30 25 26 26 31 32 30 23 22 26 29 24 23 21 21 21 22 19 17 18 24 27 29 32 33 33 35 38 39 39 40 39 41 46 47 47 47 47 48 47
34 36 33 29 34 32 28 29 35 30 23 26 22 23 22 24 22 21 19 20 16 16 19 22 23 25 29 30 30 31 35 37 38 39 40 42 44 45 46 45 45 46 46 45
35 37 32 32 33 33 27 33 36 32 32 25 23 24 27 25 21 20 18 17 15 20 19 18 21 27 30 27 28 35 38 38 39 40 40 41 43 43 44 43 43 44 43 43
38 37 32 28 29 30 26 29 33 32 29 26 25 26 28 26 20 18 18 14 18 17 17 17 22 26 23 26 31 36 37 39 39 40 40 41 42 44 43 42 42 42 42 42
35 31 34 34 33 29 26 25 28 29 28 26 24 23 25 23 20 20 19 17 17 15 14 17 22 23 24 28 30 33 38 39 40 39 40 41 42 43 42 40 41 41 41 41
34 31 31 29 35 34 32 28 29 29 28 28 27 22 21 23 22 21 17 17 14 15 19 21 24 25 25 25 26 35 38 39 39 38 41 43 42 41 40 40 40 40 39 39
32 30 29 25 32 30 25 29 29 29 28 26 25 25 21 18 14 13 14 12 18 21 22 25 25 24 26 25 32 37 38 38 37 38 40 39 39 36 37 39 38 37 35 36
31 30 29 25 28 17 24 27 26 21 17 16 13 14 15 13 12 16 18 22 23 24 25 25 26 26 26 35 38 37 36 36 36 37 38 39 39 37 34 34 34 34 33 33
33 31 27 22 21 19 16 15 19 19 17 18 17 12 11 13 11 14 23 24 25 26 27 27 28 27 35 38 37 36 36 36 36 36 37 37 37 36 33 33 32 32 32 32
34 31 27 26 20 17 20 14 16 17 18 17 16 17 13 11 11 16 23 26 25 26 27 29 30 37 38 37 36 36 36 35 34 36 35 36 36 37 33 32 32 32 32 32
28 27 24 25 23 19 15 16 18 14 17 20 16 16 15 14 17 20 27 25 24 26 28 29 36 37 37 36 35 35 35 33 34 34 34 35 36 35 33 32 32 32 32 32
25 24 24 26 22 17 19 16 15 22 23 19 18 19 24 26 27 27 26 25 23 22 23 30 36 34 34 33 33 34 33 34 33 33 33 34 34 33 32 32 32 32 32 31
24 27 25 25 25 27 22 23 23 19 17 20 19 20 23 25 22 23 23 21 21 22 25 38 35 32 30 33 33 32 33 33 32 32 33 32 32 32 32 32 32 32 32 31
27 27 27 23 21 20 18 19 19 16 18 20 19 21 24 21 22 22 21 22 23 23 35 38 37 33 29 30 33 33 33 33 32 32 32 32 32 32 32 32 32 32 32 31
26 24 22 21 19 19 18 18 21 20 22 21 22 23 24 24 24 23 24 24 27 34 35 38 34 34 31 33 32 33 33 32 32 32 32 32 32 32 32 31 32 32 32 33
21 22 21 22 20 20 20 23 23 22 22 23 24 25 26 24 25 25 24 32 35 35 38 38 35 33 32 32 31 31 33 34 32 32 32 32 32 32 32 31 30 33 33 33
Lifted_Index
4 4 4 4 3 3 3 3 2 3 2 2 3 4 5 5 4 4 4 4 5 5 5 5 5 5 5 5 5 5 6 5 3 1 -0 -2 -2 -2 -3 -2 -2 -2 -2 -2
4 4 4 3 3 3 3 2 2 2 2 2 3 4 4 4 4 4 4 4 5 5 5 5 5 5 6 6 6 6 6 6 5 4 2 0 -1 -2 -2 -2 -2 -2 -2 -2
4 4 3 3 3 3 2 2 2 2 3 3 3 3 4 4 4 4 5 5 5 5 5 6 6 7 7 8 7 7 7 7 7 6 5 3 1 1 0 -0 -1 -1 -1 -1
3 3 3 3 2 2 2 2 2 2 3 3 3 3 3 4 4 5 5 5 5 6 6 7 8 9 9 9 8 8 8 8 7 7 7 6 5 4 3 2 2 1 1 0
3 3 3 2 2 2 1 2 2 2 3 3 3 3 3 3 4 4 5 5 6 7 8 9 10 10 11 10 10 9 9 9 9 8 8 8 7 7 6 6 5 4 3 3
3 3 2 2 2 1 1 1 2 2 2 3 3 3 3 3 3 4 5 6 7 8 9 10 11 12 12 11 10 10 10 10 10 9 9 9 9 9 9 9 8 8 6 5
3 3 2 2 1 1 1 1 1 1 1 2 2 2 2 3 4 5 6 8 9 10 11 12 12 12 12 12 11 11 10 10 10 10 10 10 10 10 10 10 10 9 8 7
2 2 2 2 2 1 2 2 1 1 1 1 2 2 3 3 4 6 7 9 10 11 12 12 13 13 12 12 12 11 11 11 11 11 10 10 10 10 10 10 10 9 8 7
2 2 2 2 2 2 3 3 2 2 1 1 2 2 3 4 5 6 7 8 9 10 11 12 12 12 13 13 13 12 12 11 11 11 11 12 12 11 10 9 8 7 6 5
2 2 2 3 3 3 4 4 3 3 2 1 1 2 3 4 4 5 6 7 8 10 11 12 12 12 13 13 12 13 13 13 12 12 12 12 12 10 8 6 6 5 4 4
2 2 2 3 4 4 4 4 4 3 2 1 1 2 3 4 4 5 6 7 8 10 11 12 12 12 12 12 12 13 13 13 13 13 13 12 10 8 6 4 4 4 4 4
2 2 2 2 4 5 5 5 4 3 3 2 2 3 5 5 5 6 6 8 9 10 11 11 11 11 11 12 13 13 14 14 13 13 11 10 8 5 4 4 4 5 5 4
3 3 2 2 3 4 5 5 5 4 3 2 2 3 5 6 6 6 7 8 10 11 11 11 11 11 12 12 13 14 13 12 12 11 9 8 6 4 3 4 4 5 5 5
4 3 2 2 3 3 4 4 4 4 3 2 2 2 4 5 5 6 8 9 11 11 11 11 11 12 13 13 13 13 12 10 9 8 7 6 4 3 3 3 5 6 6 6
5 4 3 3 3 3 3 3 4 3 3 2 2 3 3 5 6 8 9 10 11 11 11 12 12 13 13 13 13 12 9 8 7 6 5 4 3 3 3 4 5 6 7 8
4 4 3 3 3 3 3 3 4 3 3 3 3 4 5 6 7 8 9 10 11 11 12 12 13 13 13 12 11 9 7 6 6 5 4 4 3 3 3 4 6 8 9 9
3 3 3 3 3 3 3 4 4 4 4 4 4 5 6 7 8 8 9 10 11 12 12 13 13 12 11 10 8 7 5 5 5 5 4 3 3 3 4 5 7 9 10 11
2 2 2 2 2 2 4 5 5 4 5 5 6 7 7 8 8 9 10 11 12 12 12 12 11 10 9 7 6 5 4 4 4 4 4 3 3 4 5 6 8 10 11 11
4 3 2 2 2 2 4 6 6 5 5 6 7 7 7 8 9 10 11 11 12 12 11 10 9 8 6 5 5 4 4 4 4 4 4 4 4 5 5 7 8 10 11 12
5 4 3 2 2 3 5 7 7 6 6 7 7 7 7 8 9 10 11 11 11 10 9 8 7 6 5 4 4 4 4 4 4 5 4 4 4 5 6 8 9 10 11 12
4 4 4 4 3 4 6 7 7 6 6 7 8 8 8 9 10 10 10 10 9 8 7 6 5 4 4 4 4 4 4 4 5 5 5 5 5 6 7 8 9 10 11 12
3 3 3 4 4 5 6 7 7 6 7 8 8 8 9 9 9 9 9 8 7 6 6 5 4 3 3 3 4 4 4 5 5 6 6 6 6 7 8 9 10 10 11 12
4 4 4 4 5 5 6 7 7 7 8 8 8 8 8 8 8 8 7 7 6 5 4 3 3 3 3 4 4 4 4 5 6 6 7 7 7 8 8 9 10 10 11 11
5 5 5 5 6 6 6 6 7 7 8 8 8 7 7 7 7 7 6 5 5 4 3 3 2 3 3 4 4 4 4 5 5 6 7 8 9 9 9 10 10 11 11 11
6 6 6 6 6 6 6 6 6 7 7 7 7 6 6 6 6 5 5 4 4 3 2 2 2 3 4 4 5 5 5 5 5 5 7 9 10 10 10 10 11 11 11 12
6 6 6 5 5 5 6 6 7 7 7 7 6 6 5 5 5 5 4 4 3 3 2 2 3 3 4 5 5 5 6 5 5 5 6 8 10 10 10 10 11 12 12 12